Oakdale, LA

10:39 PM CDT on March 26, 2017 (GMT -0500)
Oakdale

Weather History for KACP - January, 2014

Change the Weather History Date:

Wednesday, January 22, 2014

  Actual Average (KPOE) Record (KPOE)
Temperature  
Mean Temperature 40 °F -  
Max Temperature 58 °F 58 °F 77 °F (1997)
Min Temperature 23 °F 39 °F 25 °F (2011)
Degree Days  
Heating Degree Days 24    
Moisture  
Dew Point 30 °F    
Average Humidity 70    
Maximum Humidity 94    
Minimum Humidity 29    
Precipitation  
Precipitation 0.00 in - - ()
Sea Level Pressure  
Sea Level Pressure 30.20 in    
Wind  
Wind Speed 1 mph (SSE)    
Max Wind Speed 7 mph    
Max Gust Speed -    
Visibility 10 miles    
Events      
Averages and records for this station are not official NWS values.
T = Trace of Precipitation, MM = Missing Value Source: NWS Daily Summary

Daily Weather History Graph

Daily Weather History Graph

Search for Another Location

Airport or City:

Trip Planner

Search our weather history database for the weather conditions in past years. The results will help you decide how hot, cold, wet, or windy it might be!

Date:

Astronomy

Jan. 22, 2014 Rise Set
Actual Time 7:07 AM CST 5:37 PM CST
Civil Twilight 6:41 AM CST 6:03 PM CST
Nautical Twilight 6:12 AM CST 6:33 PM CST
Astronomical Twilight 5:43 AM CST 7:01 PM CST
Moon 11:41 PM CST (1/22) 10:35 AM CST (1/22)
Length of Visible Light 11h 22m
Length of Day
10h 30m
Waning Gibbous, 65% of the Moon is Illuminated
Jan 22
Waning Gibbous
Jan 23
Last Quarter
Jan 30
New
Feb 6
First Quarter
Feb 14
Full

Hourly Weather History & Observations

Time (CST) Temp. Windchill Dew Point Humidity Pressure Visibility Wind Dir Wind Speed Gust Speed Precip Events Conditions
12:15 AM 27.7 °F - 25.7 °F 92% 30.24 in 10.0 mi Calm Calm - N/A   Clear
12:35 AM 27.7 °F - 25.7 °F 92% 30.24 in 10.0 mi Calm Calm - N/A   Clear
12:55 AM 27.5 °F - 25.7 °F 93% 30.25 in 10.0 mi Calm Calm - N/A   Clear
1:15 AM 27.1 °F - 25.2 °F 92% 30.24 in 10.0 mi Calm Calm - N/A   Clear
1:35 AM 27.1 °F - 25.3 °F 93% 30.25 in 10.0 mi Calm Calm - N/A   Clear
1:55 AM 27.0 °F - 25.3 °F 94% 30.24 in 10.0 mi Calm Calm - N/A   Clear
2:15 AM 27.1 °F - 25.2 °F 92% 30.24 in 10.0 mi Calm Calm - N/A   Clear
2:35 AM 26.8 °F - 25.0 °F 93% 30.24 in 10.0 mi Calm Calm - N/A   Clear
2:55 AM 26.2 °F - 24.4 °F 93% 30.24 in 10.0 mi Calm Calm - N/A   Clear
3:15 AM 26.1 °F - 23.9 °F 92% 30.24 in 10.0 mi Calm Calm - N/A   Clear
3:55 AM 25.5 °F - 23.5 °F 92% 30.24 in 10.0 mi Calm Calm - N/A   Clear
4:15 AM 25.5 °F - 23.5 °F 92% 30.24 in 10.0 mi Calm Calm - N/A   Clear
4:35 AM 24.6 °F - 22.1 °F 90% 30.23 in 10.0 mi Calm Calm - N/A   Clear
4:55 AM 24.8 °F - 23.0 °F 93% 30.23 in 10.0 mi Calm Calm - N/A   Clear
5:15 AM 24.6 °F - 22.6 °F 92% 30.23 in 10.0 mi Calm Calm - N/A   Clear
5:35 AM 24.6 °F - 22.8 °F 93% 30.23 in 10.0 mi Calm Calm - N/A   Clear
5:55 AM 24.4 °F - 22.6 °F 93% 30.22 in 10.0 mi Calm Calm - N/A   Clear
6:15 AM 24.4 °F - 22.5 °F 92% 30.22 in 10.0 mi Calm Calm - N/A   Clear
6:35 AM 23.9 °F - 22.1 °F 93% 30.22 in 10.0 mi Calm Calm - N/A   Clear
6:55 AM 23.9 °F - 22.1 °F 93% 30.23 in 10.0 mi Calm Calm - N/A   Clear
7:15 AM 23.9 °F - 22.1 °F 93% 30.23 in 10.0 mi Calm Calm - N/A   Clear
7:35 AM 24.8 °F - 23.0 °F 93% 30.23 in 10.0 mi Calm Calm - N/A   Clear
7:55 AM 27.9 °F - 25.5 °F 91% 30.23 in 10.0 mi Calm Calm - N/A   Clear
8:15 AM 30.9 °F - 27.5 °F 87% 30.23 in 10.0 mi Calm Calm - N/A   Clear
8:35 AM 33.4 °F 29.1 °F 27.3 °F 78% 30.24 in 10.0 mi ESE 4.6 mph - N/A   Clear
8:55 AM 35.8 °F 31.9 °F 27.1 °F 71% 30.25 in 10.0 mi ESE 4.6 mph - N/A   Clear
9:15 AM 38.7 °F 35.2 °F 26.4 °F 61% 30.26 in 10.0 mi ESE 4.6 mph - N/A   Clear
9:35 AM 40.5 °F 36.5 °F 25.7 °F 56% 30.26 in 10.0 mi East 5.8 mph - N/A   Clear
9:55 AM 42.4 °F 39.6 °F 25.0 °F 50% 30.26 in 10.0 mi SE 4.6 mph - N/A   Clear
10:15 AM 44.8 °F 41.6 °F 24.4 °F 45% 30.26 in 10.0 mi SSE 5.8 mph - N/A   Clear
10:35 AM 46.0 °F 43.9 °F 23.7 °F 42% 30.25 in 10.0 mi ESE 4.6 mph - N/A   Clear
10:55 AM 48.2 °F - 23.7 °F 38% 30.25 in 10.0 mi Calm Calm - N/A   Clear
11:15 AM 49.1 °F - 22.8 °F 36% 30.24 in 10.0 mi Calm Calm - N/A   Clear
11:35 AM 50.9 °F - 23.2 °F 34% 30.23 in 10.0 mi SE 4.6 mph - N/A   Clear
11:55 AM 53.1 °F - 25.5 °F 34% 30.22 in 10.0 mi SSW 4.6 mph - N/A   Clear
12:15 PM 53.2 °F - 21.6 °F 29% 30.21 in 10.0 mi SSW 6.9 mph - N/A   Clear
12:35 PM 54.0 °F - 25.2 °F 33% 30.20 in 10.0 mi SSE 4.6 mph - N/A   Clear
12:55 PM 54.9 °F - 26.2 °F 33% 30.19 in 10.0 mi SSW 3.5 mph - N/A   Clear
1:15 PM 55.9 °F - 26.4 °F 32% 30.18 in 10.0 mi SSW 4.6 mph - N/A   Clear
1:35 PM 56.1 °F - 26.4 °F 32% 30.16 in 10.0 mi Calm Calm - N/A   Clear
1:55 PM 57.2 °F - 24.8 °F 29% 30.16 in 10.0 mi WSW 4.6 mph - N/A   Clear
2:15 PM 57.7 °F - 27.0 °F 31% 30.15 in 10.0 mi SSE 5.8 mph - N/A   Clear
2:35 PM 57.6 °F - 27.7 °F 32% 30.15 in 10.0 mi SSE 4.6 mph - N/A   Clear
2:55 PM 58.5 °F - 30.0 °F 34% 30.14 in 10.0 mi South 5.8 mph - N/A   Clear
3:15 PM 58.8 °F - 31.1 °F 35% 30.15 in 10.0 mi SSE 3.5 mph - N/A   Clear
3:35 PM 58.5 °F - 32.0 °F 37% 30.14 in 10.0 mi SSE 3.5 mph - N/A   Clear
3:55 PM 58.5 °F - 33.1 °F 38% 30.13 in 10.0 mi ESE 5.8 mph - N/A   Clear
4:15 PM 57.7 °F - 33.6 °F 40% 30.14 in 10.0 mi South 4.6 mph - N/A   Clear
4:35 PM 56.5 °F - 34.9 °F 44% 30.14 in 10.0 mi Calm Calm - N/A   Clear
4:55 PM 55.6 °F - 36.3 °F 48% 30.13 in 10.0 mi Calm Calm - N/A   Clear
5:15 PM 51.8 °F - 38.5 °F 60% 30.13 in 10.0 mi Calm Calm - N/A   Clear
5:35 PM 51.8 °F - 38.3 °F 60% 30.14 in 10.0 mi SSE 3.5 mph - N/A   Clear
5:55 PM 50.5 °F - 39.4 °F 66% 30.14 in 10.0 mi Calm Calm - N/A   Clear
6:15 PM 47.1 °F - 39.4 °F 74% 30.14 in 10.0 mi Calm Calm - N/A   Clear
6:35 PM 42.4 °F - 38.3 °F 85% 30.14 in 10.0 mi Calm Calm - N/A   Clear
6:55 PM 43.2 °F - 39.4 °F 86% 30.14 in 10.0 mi Calm Calm - N/A   Clear
7:15 PM 41.9 °F - 38.3 °F 87% 30.14 in 10.0 mi Calm Calm - N/A   Clear
7:35 PM 44.1 °F - 39.0 °F 82% 30.14 in 10.0 mi Calm Calm - N/A   Clear
7:55 PM 46.6 °F - 39.4 °F 76% 30.15 in 10.0 mi Calm Calm - N/A   Clear
8:15 PM 45.1 °F - 39.6 °F 81% 30.15 in 10.0 mi Calm Calm - N/A   Clear
8:35 PM 41.5 °F - 38.5 °F 89% 30.15 in 10.0 mi Calm Calm - N/A   Clear
8:55 PM 40.8 °F - 38.1 °F 90% 30.16 in 10.0 mi Calm Calm - N/A   Clear
9:15 PM 43.9 °F 42.3 °F 39.4 °F 84% 30.17 in 10.0 mi South 3.5 mph - N/A   Clear
9:35 PM 44.8 °F 43.3 °F 39.6 °F 82% 30.16 in 10.0 mi SSE 3.5 mph - N/A   Clear
9:55 PM 44.8 °F - 39.4 °F 81% 30.16 in 10.0 mi Calm Calm - N/A   Clear
10:15 PM 44.8 °F - 39.2 °F 81% 30.16 in 10.0 mi Calm Calm - N/A   Clear
10:35 PM 44.2 °F - 39.0 °F 82% 30.16 in 10.0 mi Calm Calm - N/A   Clear
10:55 PM 43.7 °F - 38.7 °F 82% 30.16 in 10.0 mi Calm Calm - N/A   Clear
11:15 PM 42.6 °F - 38.1 °F 84% 30.16 in 10.0 mi Calm Calm - N/A   Clear
11:35 PM 38.3 °F - 36.3 °F 93% 30.17 in 10.0 mi Calm Calm - N/A   Clear
11:55 PM 38.7 °F - 36.7 °F 93% 30.17 in 10.0 mi Calm Calm - N/A   Clear